,,Stat5,,Stat1,,Stat2,,Stat3,,Stat4,,Wind1,,Wind1,
time,status,PA1M_AVG,status,PR1M_SUM,status,RH1M_AVG,status,SR1M_AVG,status,TA1M_AVG,status,W1dAve1m,status,W1sAve1m,
2001-08-23, 00:00:00,VALID,917.444,VALID,0,VALID,95.3157,VALID,-0.0169808,VALID,19.2359,VALID,10,VALID,0.512669,
2001-08-23, 00:01:00,VALID,917.444,VALID,0,VALID,95.3309,VALID,-0.0169808,VALID,19.2098,VALID,7,VALID,0.5102,
2001-08-23, 00:02:00,VALID,917.451,VALID,0,VALID,95.3767,VALID,-0.0339617,VALID,19.1618,VALID,357,VALID,0.457422,
2001-08-23, 00:03:00,VALID,917.452,VALID,0,VALID,95.6259,VALID,-0.0339617,VALID,19.1127,VALID,357,VALID,0.327679,
2001-08-23, 00:04:00,VALID,917.47,VALID,0,VALID,96.1791,VALID,0,VALID,19.1224,VALID,360,VALID,0.664864,
2001-08-23, 00:05:00,VALID,917.476,VALID,0,VALID,96.4588,VALID,-0.0169808,VALID,19.1455,VALID,7,VALID,0.667236,
2001-08-23, 00:06:00,VALID,917.47,VALID,0,VALID,96.0278,VALID,0,VALID,19.1037,VALID,7,VALID,0.670186,
2001-08-23, 00:07:00,VALID,917.477,VALID,0,VALID,96.2236,VALID,0,VALID,19.0682,VALID,5,VALID,0.823742,
2001-08-23, 00:08:00,VALID,917.495,VALID,0,VALID,96.6432,VALID,-0.0169808,VALID,19.0744,VALID,354,VALID,0.755809,
2001-08-23, 00:09:00,VALID,917.512,VALID,0,VALID,97.2282,VALID,-0.0339617,VALID,19.1648,VALID,345,VALID,1.03486,
2001-08-23, 00:10:00,VALID,917.509,VALID,0,VALID,97.4647,VALID,0,VALID,19.2617,VALID,333,VALID,1.01406,
2001-08-23, 00:11:00,VALID,917.511,VALID,0,VALID,97.3235,VALID,0,VALID,19.3365,VALID,359,VALID,0.50918,
2001-08-23, 00:12:00,VALID,917.516,VALID,0,VALID,97.2358,VALID,-0.0169808,VALID,19.3656,VALID,317,VALID,0.149023,
2001-08-23, 00:13:00,VALID,917.509,VALID,0,VALID,97.204,VALID,-0.0169808,VALID,19.3815,VALID,317,VALID,0.238477,
2001-08-23, 00:14:00,VALID,917.51,VALID,0,VALID,97.2371,VALID,0,VALID,19.3847,VALID,341,VALID,0.459671,
2001-08-23, 00:15:00,VALID,917.502,VALID,0,VALID,97.2307,VALID,-0.0169808,VALID,19.3879,VALID,359,VALID,0.38303,
2001-08-23, 00:16:00,VALID,917.503,VALID,0,VALID,97.0501,VALID,0,VALID,19.3556,VALID,10,VALID,0.439509,
2001-08-23, 00:17:00,VALID,917.511,VALID,0,VALID,97.0094,VALID,-0.0169808,VALID,19.3362,VALID,341,VALID,0.290752,
2001-08-23, 00:18:00,VALID,917.51,VALID,0,VALID,97.0145,VALID,-0.0169808,VALID,19.3139,VALID,349,VALID,0.257813,
2001-08-23, 00:19:00,VALID,917.519,VALID,0,VALID,97.026,VALID,-0.0169808,VALID,19.3039,VALID,5,VALID,0.495793,
2001-08-23, 00:20:00,VALID,917.525,VALID,0,VALID,97.0018,VALID,0,VALID,19.301,VALID,348,VALID,0.253205,
2001-08-23, 00:21:00,VALID,917.522,VALID,0,VALID,97.1697,VALID,0,VALID,19.3039,VALID,348,VALID,0.0392857,
2001-08-23, 00:22:00,VALID,917.528,VALID,0,VALID,97.2777,VALID,-0.0339617,VALID,19.3238,VALID,348,VALID,0.135691,
2001-08-23, 00:23:00,VALID,917.524,VALID,0,VALID,97.3184,VALID,-0.0339617,VALID,19.3139,VALID,347,VALID,0.13101,
2001-08-23, 00:24:00,VALID,917.522,VALID,0,VALID,97.3629,VALID,0,VALID,19.3104,VALID,347,VALID,0,
2001-08-23, 00:25:00,VALID,917.522,VALID,0,VALID,97.4176,VALID,0,VALID,19.3203,VALID,347,VALID,0,
2001-08-23, 00:26:00,VALID,917.532,VALID,0,VALID,97.2663,VALID,0,VALID,19.2848,VALID,347,VALID,0,
2001-08-23, 00:27:00,VALID,917.509,VALID,0,VALID,97.2574,VALID,0,VALID,19.2587,VALID,347,VALID,0,
2001-08-23, 00:28:00,VALID,917.513,VALID,0,VALID,96.9484,VALID,-0.0169808,VALID,19.2041,VALID,347,VALID,0.0511719,
2001-08-23, 00:29:00,VALID,917.512,VALID,0,VALID,96.6776,VALID,0,VALID,19.1303,VALID,347,VALID,0.0222656,
2001-08-23, 00:30:00,VALID,917.499,VALID,0,VALID,96.8454,VALID,0,VALID,19.1136,VALID,347,VALID,0,
2001-08-23, 00:31:00,VALID,917.505,VALID,0,VALID,97.045,VALID,-0.0169808,VALID,19.1233,VALID,347,VALID,0,
2001-08-23, 00:32:00,VALID,917.482,VALID,0,VALID,97.1188,VALID,0,VALID,19.14,VALID,347,VALID,0,
2001-08-23, 00:33:00,VALID,917.465,VALID,0,VALID,97.1201,VALID,-0.0169808,VALID,19.1367,VALID,347,VALID,0,
2001-08-23, 00:34:00,VALID,917.431,VALID,0,VALID,97.1862,VALID,-0.0339617,VALID,19.1404,VALID,347,VALID,0,
2001-08-23, 00:35:00,VALID,917.419,VALID,0,VALID,97.3947,VALID,-0.0339617,VALID,19.1693,VALID,347,VALID,0,
2001-08-23, 00:36:00,VALID,917.398,VALID,0,VALID,97.5359,VALID,-0.0169808,VALID,19.1884,VALID,347,VALID,0,
2001-08-23, 00:37:00,VALID,917.384,VALID,0,VALID,97.602,VALID,-0.0169808,VALID,19.1919,VALID,347,VALID,0,
2001-08-23, 00:38:00,VALID,917.381,VALID,0,VALID,97.6071,VALID,-0.0679233,VALID,19.1916,VALID,347,VALID,0,
2001-08-23, 00:39:00,VALID,917.393,VALID,0,VALID,97.4927,VALID,-0.0339617,VALID,19.1727,VALID,331,VALID,0.0445524,
2001-08-23, 00:40:00,VALID,917.386,VALID,0,VALID,97.4253,VALID,-0.0339617,VALID,19.1298,VALID,323,VALID,0,
2001-08-23, 00:41:00,VALID,917.393,VALID,0,VALID,97.2943,VALID,-0.0169808,VALID,19.1109,VALID,322,VALID,0.0010016,
2001-08-23, 00:42:00,VALID,917.387,VALID,0,VALID,96.9891,VALID,-0.0169808,VALID,19.0299,VALID,322,VALID,0,
2001-08-23, 00:43:00,VALID,917.38,VALID,0,VALID,96.8772,VALID,0,VALID,18.9882,VALID,322,VALID,0,
2001-08-23, 00:44:00,VALID,917.381,VALID,0,VALID,96.8352,VALID,-0.0169808,VALID,18.933,VALID,322,VALID,0,
2001-08-23, 00:45:00,VALID,917.38,VALID,0,VALID,96.8657,VALID,-0.0339617,VALID,18.9201,VALID,313,VALID,0.0402344,
2001-08-23, 00:46:00,VALID,917.344,VALID,0,VALID,97.0285,VALID,-0.0509425,VALID,18.9238,VALID,156,VALID,0.202148,
2001-08-23, 00:47:00,VALID,917.325,VALID,0,VALID,97.2676,VALID,-0.0169808,VALID,18.9497,VALID,119,VALID,0.0143581,
2001-08-23, 00:48:00,VALID,917.309,VALID,0,VALID,97.143,VALID,0,VALID,18.9363,VALID,40,VALID,0.300998,
2001-08-23, 00:49:00,VALID,917.314,VALID,0,VALID,96.7271,VALID,0,VALID,18.8652,VALID,40,VALID,0,
2001-08-23, 00:50:00,VALID,917.317,VALID,0,VALID,96.6737,VALID,0,VALID,18.8272,VALID,38,VALID,0.27766,
2001-08-23, 00:51:00,VALID,917.327,VALID,0,VALID,96.9408,VALID,-0.0339617,VALID,18.8232,VALID,31,VALID,0.0428632,
2001-08-23, 00:52:00,VALID,917.345,VALID,0,VALID,97.4952,VALID,-0.0169808,VALID,18.8945,VALID,10,VALID,0.0118189,
2001-08-23, 00:53:00,VALID,917.354,VALID,0,VALID,97.705,VALID,0,VALID,18.9462,VALID,359,VALID,0.844151,
2001-08-23, 00:54:00,VALID,917.364,VALID,0,VALID,97.7927,VALID,-0.0509425,VALID,18.9658,VALID,256,VALID,0.276339,
2001-08-23, 00:55:00,VALID,917.345,VALID,0,VALID,98.2836,VALID,-0.0169808,VALID,19.0592,VALID,279,VALID,0.673314,
2001-08-23, 00:56:00,VALID,917.352,VALID,0,VALID,98.2899,VALID,-0.0509425,VALID,19.1402,VALID,20,VALID,0.701723,
2001-08-23, 00:57:00,VALID,917.344,VALID,0,VALID,98.3205,VALID,-0.0169808,VALID,19.1886,VALID,24,VALID,0.762305,
2001-08-23, 00:58:00,VALID,917.335,VALID,0,VALID,98.3039,VALID,-0.0849042,VALID,19.2242,VALID,358,VALID,0.375422,
2001-08-23, 00:59:00,VALID,917.326,VALID,0,VALID,98.3243,VALID,-0.0169808,VALID,19.2428,VALID,272,VALID,0.3144,
2001-08-23, 01:00:00,VALID,917.333,VALID,0,VALID,98.2963,VALID,0.0679233,VALID,19.2811,VALID,336,VALID,0.741536,
2001-08-23, 01:01:00,VALID,917.346,VALID,0,VALID,98.2404,VALID,0.0679233,VALID,19.2935,VALID,8,VALID,0.31875,
2001-08-23, 01:02:00,VALID,917.348,VALID,0,VALID,98.2022,VALID,0.0679233,VALID,19.3099,VALID,2,VALID,0.0560547,
2001-08-23, 01:03:00,VALID,917.356,VALID,0,VALID,98.2365,VALID,0.0509425,VALID,19.3487,VALID,269,VALID,0.377404,
2001-08-23, 01:04:00,VALID,917.347,VALID,0,VALID,98.3065,VALID,0.101885,VALID,19.4033,VALID,224,VALID,0.0919471,
2001-08-23, 01:05:00,VALID,917.32,VALID,0,VALID,98.2607,VALID,0.101885,VALID,19.4456,VALID,291,VALID,0.307589,
2001-08-23, 01:06:00,VALID,917.33,VALID,0,VALID,98.131,VALID,0.0679233,VALID,19.4354,VALID,20,VALID,0.564303,
2001-08-23, 01:07:00,VALID,917.311,VALID,0,VALID,98.0267,VALID,0.0849042,VALID,19.4322,VALID,357,VALID,0.0396793,
2001-08-23, 01:08:00,VALID,917.302,VALID,0,VALID,97.986,VALID,0.0849042,VALID,19.4359,VALID,350,VALID,0.0283717,
2001-08-23, 01:09:00,VALID,917.291,VALID,0,VALID,97.967,VALID,0.0849042,VALID,19.455,VALID,7,VALID,0.284722,
2001-08-23, 01:10:00,VALID,917.271,VALID,0,VALID,97.9441,VALID,0.0679233,VALID,19.4582,VALID,2,VALID,0.654514,
2001-08-23, 01:11:00,VALID,917.268,VALID,0,VALID,97.7877,VALID,0.101885,VALID,19.4483,VALID,278,VALID,0.297105,
2001-08-23, 01:12:00,VALID,917.26,VALID,0,VALID,97.7724,VALID,0.101885,VALID,19.4448,VALID,342,VALID,0.573057,
2001-08-23, 01:13:00,VALID,917.225,VALID,0,VALID,97.7508,VALID,0.0849042,VALID,19.4548,VALID,16,VALID,0.555489,
2001-08-23, 01:14:00,VALID,917.231,VALID,0,VALID,97.7304,VALID,0.0849042,VALID,19.455,VALID,31,VALID,0.597556,
2001-08-23, 01:15:00,VALID,917.234,VALID,0,VALID,97.7749,VALID,0.0849042,VALID,19.4545,VALID,19,VALID,0.329127,
2001-08-23, 01:16:00,VALID,917.224,VALID,0,VALID,97.8284,VALID,0.0679233,VALID,19.4615,VALID,20,VALID,0.239063,
2001-08-23, 01:17:00,VALID,917.227,VALID,0,VALID,97.808,VALID,0.101885,VALID,19.4734,VALID,23,VALID,0.0310547,
2001-08-23, 01:18:00,VALID,917.229,VALID,0,VALID,97.761,VALID,0.0679233,VALID,19.4672,VALID,22,VALID,0.408008,
2001-08-23, 01:19:00,VALID,917.242,VALID,0,VALID,97.6618,VALID,0.101885,VALID,19.4543,VALID,13,VALID,0.541211,
2001-08-23, 01:20:00,VALID,917.245,VALID,0,VALID,97.5372,VALID,0.101885,VALID,19.4354,VALID,28,VALID,0.744721,
2001-08-23, 01:21:00,VALID,917.236,VALID,0,VALID,97.5524,VALID,0.101885,VALID,19.4255,VALID,25,VALID,0.669271,
2001-08-23, 01:22:00,VALID,917.242,VALID,0,VALID,97.5232,VALID,0.101885,VALID,19.4153,VALID,15,VALID,0.447991,
2001-08-23, 01:23:00,VALID,917.251,VALID,0,VALID,97.5473,VALID,0.0849042,VALID,19.4354,VALID,30,VALID,0.262035,
2001-08-23, 01:24:00,VALID,917.254,VALID,0,VALID,97.5829,VALID,0.101885,VALID,19.4446,VALID,27,VALID,0.111698,
2001-08-23, 01:25:00,VALID,917.245,VALID,0,VALID,97.5842,VALID,0.101885,VALID,19.4577,VALID,26,VALID,0.00540865,
2001-08-23, 01:26:00,VALID,917.262,VALID,0,VALID,97.588,VALID,0.101885,VALID,19.4707,VALID,26,VALID,0.0226362,
2001-08-23, 01:27:00,VALID,917.255,VALID,0,VALID,97.5842,VALID,0.101885,VALID,19.4833,VALID,26,VALID,0.0491071,
2001-08-23, 01:28:00,VALID,917.244,VALID,0,VALID,97.5766,VALID,0.0849042,VALID,19.4995,VALID,17,VALID,0.488487,
2001-08-23, 01:29:00,VALID,917.243,VALID,0,VALID,97.5422,VALID,0.0849042,VALID,19.5164,VALID,20,VALID,0.629808,
2001-08-23, 01:30:00,VALID,917.24,VALID,0,VALID,97.4278,VALID,-0.0509425,VALID,19.5109,VALID,18,VALID,0.782227,
2001-08-23, 01:31:00,VALID,917.225,VALID,0,VALID,97.3706,VALID,-0.0679233,VALID,19.498,VALID,13,VALID,0.782095,
2001-08-23, 01:32:00,VALID,917.216,VALID,0,VALID,97.3401,VALID,-0.0679233,VALID,19.5146,VALID,6,VALID,0.535051,
2001-08-23, 01:33:00,VALID,917.211,VALID,0,VALID,97.3121,VALID,-0.0509425,VALID,19.4977,VALID,20,VALID,0.570095,
2001-08-23, 01:34:00,VALID,917.21,VALID,0,VALID,97.2956,VALID,-0.0339617,VALID,19.4913,VALID,1,VALID,0.367578,
2001-08-23, 01:35:00,VALID,917.206,VALID,0,VALID,97.2968,VALID,-0.0339617,VALID,19.4915,VALID,2,VALID,0.0285156,
2001-08-23, 01:36:00,VALID,917.195,VALID,0,VALID,97.3134,VALID,0,VALID,19.4716,VALID,2,VALID,0.0010016,
2001-08-23, 01:37:00,VALID,917.167,VALID,0,VALID,97.3108,VALID,-0.0169808,VALID,19.4719,VALID,2,VALID,0,
2001-08-23, 01:38:00,VALID,917.145,VALID,0,VALID,97.3286,VALID,0,VALID,19.4816,VALID,2,VALID,0,
2001-08-23, 01:39:00,VALID,917.117,VALID,0,VALID,97.2625,VALID,-0.0169808,VALID,19.4888,VALID,2,VALID,0,
2001-08-23, 01:40:00,VALID,917.094,VALID,0,VALID,97.1862,VALID,-0.0509425,VALID,19.4657,VALID,9,VALID,0.135691,
2001-08-23, 01:41:00,VALID,917.1,VALID,0,VALID,97.087,VALID,-0.0339617,VALID,19.4431,VALID,23,VALID,0.51028,
2001-08-23, 01:42:00,VALID,917.126,VALID,0,VALID,97.0107,VALID,-0.0169808,VALID,19.417,VALID,27,VALID,0.362413,
2001-08-23, 01:43:00,VALID,917.134,VALID,0,VALID,97.0705,VALID,0,VALID,19.417,VALID,36,VALID,0.439019,
2001-08-23, 01:44:00,VALID,917.151,VALID,0,VALID,97.1697,VALID,0,VALID,19.4331,VALID,36,VALID,0.348805,
2001-08-23, 01:45:00,VALID,917.186,VALID,0,VALID,97.1455,VALID,0.0849042,VALID,19.4287,VALID,42,VALID,0.376056,
2001-08-23, 01:46:00,VALID,917.198,VALID,0,VALID,97.1264,VALID,0.0679233,VALID,19.422,VALID,49,VALID,0.374199,
2001-08-23, 01:47:00,VALID,917.208,VALID,0,VALID,97.087,VALID,0.101885,VALID,19.4255,VALID,73,VALID,0.393429,
2001-08-23, 01:48:00,VALID,917.221,VALID,0,VALID,97.0323,VALID,0.0339617,VALID,19.3994,VALID,73,VALID,0.402244,
2001-08-23, 01:49:00,VALID,917.196,VALID,0,VALID,97.0311,VALID,0.0339617,VALID,19.3994,VALID,73,VALID,0.34375,
2001-08-23, 01:50:00,VALID,917.192,VALID,0,VALID,97.1023,VALID,0.0339617,VALID,19.3872,VALID,61,VALID,0.285937,
2001-08-23, 01:51:00,VALID,917.177,VALID,0,VALID,97.2193,VALID,0.0849042,VALID,19.3805,VALID,55,VALID,0.439063,
2001-08-23, 01:52:00,VALID,917.161,VALID,0,VALID,97.2447,VALID,0.0849042,VALID,19.3768,VALID,54,VALID,0.247656,
2001-08-23, 01:53:00,VALID,917.137,VALID,0,VALID,97.246,VALID,0.101885,VALID,19.3735,VALID,53,VALID,0.337204,
2001-08-23, 01:54:00,VALID,917.133,VALID,0,VALID,97.2638,VALID,0.0339617,VALID,19.3671,VALID,52,VALID,0.446615,
2001-08-23, 01:55:00,VALID,917.108,VALID,0,VALID,97.2269,VALID,0.0679233,VALID,19.3775,VALID,37,VALID,0.652455,
2001-08-23, 01:56:00,VALID,917.122,VALID,0,VALID,97.19,VALID,0.0509425,VALID,19.3638,VALID,29,VALID,0.633868,
2001-08-23, 01:57:00,VALID,917.094,VALID,0,VALID,97.1913,VALID,0.0679233,VALID,19.3318,VALID,16,VALID,0.663429,
2001-08-23, 01:58:00,VALID,917.075,VALID,0,VALID,97.3121,VALID,0.0679233,VALID,19.3283,VALID,12,VALID,0.579728,
2001-08-23, 01:59:00,VALID,917.055,VALID,0,VALID,97.3706,VALID,0.0679233,VALID,19.3383,VALID,12,VALID,0.554888,
2001-08-23, 02:00:00,VALID,917.046,VALID,0,VALID,97.4316,VALID,-0.0679233,VALID,19.3524,VALID,12,VALID,0.373884,
2001-08-23, 02:01:00,VALID,917.028,VALID,0,VALID,97.452,VALID,-0.0509425,VALID,19.3658,VALID,12,VALID,0.633018,
2001-08-23, 02:02:00,VALID,916.986,VALID,0,VALID,97.4634,VALID,-0.0509425,VALID,19.3852,VALID,10,VALID,0.564103,
2001-08-23, 02:03:00,VALID,916.953,VALID,0,VALID,97.3579,VALID,0,VALID,19.378,VALID,10,VALID,0.765234,
2001-08-23, 02:04:00,VALID,916.943,VALID,0,VALID,97.2129,VALID,-0.0679233,VALID,19.379,VALID,7,VALID,0.848395,
2001-08-23, 02:05:00,VALID,916.951,VALID,0,VALID,97.1252,VALID,-0.0509425,VALID,19.3564,VALID,6,VALID,0.608742,
2001-08-23, 02:06:00,VALID,916.946,VALID,0,VALID,97.0921,VALID,-0.0509425,VALID,19.3561,VALID,358,VALID,0.519965,
2001-08-23, 02:07:00,VALID,916.959,VALID,0,VALID,97.0463,VALID,-0.0509425,VALID,19.3626,VALID,352,VALID,0.441797,
2001-08-23, 02:08:00,VALID,916.961,VALID,0,VALID,96.9967,VALID,-0.0849042,VALID,19.3496,VALID,339,VALID,0.693164,
2001-08-23, 02:09:00,VALID,916.965,VALID,0,VALID,96.9331,VALID,-0.0849042,VALID,19.3524,VALID,338,VALID,0.541266,
2001-08-23, 02:10:00,VALID,916.957,VALID,0,VALID,96.8797,VALID,-0.0509425,VALID,19.3693,VALID,345,VALID,0.584135,
2001-08-23, 02:11:00,VALID,916.937,VALID,0,VALID,96.7984,VALID,-0.0339617,VALID,19.3656,VALID,344,VALID,0.567857,
2001-08-23, 02:12:00,VALID,916.909,VALID,0,VALID,96.7449,VALID,-0.0679233,VALID,19.3752,VALID,336,VALID,0.503806,
2001-08-23, 02:13:00,VALID,916.888,VALID,0,VALID,96.6915,VALID,-0.0339617,VALID,19.3752,VALID,335,VALID,0.195107,
2001-08-23, 02:14:00,VALID,916.883,VALID,0,VALID,96.6559,VALID,-0.0169808,VALID,19.3844,VALID,319,VALID,0.264391,
2001-08-23, 02:15:00,VALID,916.878,VALID,0,VALID,96.6089,VALID,-0.0339617,VALID,19.4043,VALID,314,VALID,0.328125,
2001-08-23, 02:16:00,VALID,916.867,VALID,0,VALID,96.5529,VALID,-0.0339617,VALID,19.4073,VALID,314,VALID,0.211372,
2001-08-23, 02:17:00,VALID,916.86,VALID,0,VALID,96.5084,VALID,-0.0509425,VALID,19.4138,VALID,314,VALID,0.0620404,
2001-08-23, 02:18:00,VALID,916.853,VALID,0,VALID,96.483,VALID,-0.0339617,VALID,19.4209,VALID,307,VALID,0.0236486,
2001-08-23, 02:19:00,VALID,916.859,VALID,0,VALID,96.4436,VALID,-0.0679233,VALID,19.4145,VALID,298,VALID,0.0991587,
2001-08-23, 02:20:00,VALID,916.864,VALID,0,VALID,96.2236,VALID,-0.101885,VALID,19.3854,VALID,33,VALID,0.117588,
2001-08-23, 02:21:00,VALID,916.879,VALID,0,VALID,96.015,VALID,-0.0679233,VALID,19.3404,VALID,9,VALID,0.247997,
2001-08-23, 02:22:00,VALID,916.883,VALID,0,VALID,96.0011,VALID,-0.0339617,VALID,19.3106,VALID,354,VALID,0.0227679,
2001-08-23, 02:23:00,VALID,916.887,VALID,0,VALID,95.8803,VALID,-0.0339617,VALID,19.2784,VALID,354,VALID,0.0394531,
2001-08-23, 02:24:00,VALID,916.897,VALID,0,VALID,95.6437,VALID,-0.0339617,VALID,19.2299,VALID,354,VALID,0.172656,
2001-08-23, 02:25:00,VALID,916.91,VALID,0,VALID,95.5967,VALID,-0.0339617,VALID,19.1648,VALID,358,VALID,0.106055,
2001-08-23, 02:26:00,VALID,916.887,VALID,0,VALID,96.0278,VALID,-0.0679233,VALID,19.1561,VALID,6,VALID,0.11951,
2001-08-23, 02:27:00,VALID,916.892,VALID,0,VALID,96.2923,VALID,-0.0509425,VALID,19.1658,VALID,5,VALID,0.240234,
2001-08-23, 02:28:00,VALID,916.89,VALID,0,VALID,96.4016,VALID,-0.0509425,VALID,19.1787,VALID,6,VALID,0.0205357,
2001-08-23, 02:29:00,VALID,916.896,VALID,0,VALID,96.2859,VALID,-0.0169808,VALID,19.1489,VALID,6,VALID,0,
2001-08-23, 02:30:00,VALID,916.884,VALID,0,VALID,96.2312,VALID,0.0509425,VALID,19.1291,VALID,6,VALID,0,
2001-08-23, 02:31:00,VALID,916.883,VALID,0,VALID,95.7404,VALID,0.0509425,VALID,19.0605,VALID,6,VALID,0,
2001-08-23, 02:32:00,VALID,916.872,VALID,0,VALID,95.3602,VALID,0.0509425,VALID,18.9678,VALID,6,VALID,0,
2001-08-23, 02:33:00,VALID,916.864,VALID,0,VALID,95.72,VALID,0.0509425,VALID,18.9261,VALID,6,VALID,0,
2001-08-23, 02:34:00,VALID,916.851,VALID,0,VALID,96.0227,VALID,0.0339617,VALID,18.8961,VALID,355,VALID,0.185238,
2001-08-23, 02:35:00,VALID,916.835,VALID,0,VALID,96.1969,VALID,0.0339617,VALID,18.8769,VALID,343,VALID,0.236378,
2001-08-23, 02:36:00,VALID,916.83,VALID,0,VALID,96.4016,VALID,0.0509425,VALID,18.8573,VALID,342,VALID,0.136523,
2001-08-23, 02:37:00,VALID,916.82,VALID,0,VALID,96.9293,VALID,0.101885,VALID,18.8924,VALID,341,VALID,0.338471,
2001-08-23, 02:38:00,VALID,916.823,VALID,0,VALID,97.059,VALID,0.0679233,VALID,18.9189,VALID,311,VALID,0.257179,
2001-08-23, 02:39:00,VALID,916.817,VALID,0,VALID,97.1035,VALID,0.0339617,VALID,18.9192,VALID,337,VALID,0.428385,
2001-08-23, 02:40:00,VALID,916.802,VALID,0,VALID,96.956,VALID,0.0509425,VALID,18.9028,VALID,346,VALID,0.223633,
2001-08-23, 02:41:00,VALID,916.776,VALID,0,VALID,96.8759,VALID,0.0679233,VALID,18.861,VALID,12,VALID,0.394141,
2001-08-23, 02:42:00,VALID,916.739,VALID,0,VALID,97.1112,VALID,0.0849042,VALID,18.8839,VALID,6,VALID,0.365785,
2001-08-23, 02:43:00,VALID,916.736,VALID,0,VALID,97.0374,VALID,0.0679233,VALID,18.864,VALID,328,VALID,0.30649,
2001-08-23, 02:44:00,VALID,916.711,VALID,0,VALID,97.1468,VALID,0.0509425,VALID,18.8705,VALID,342,VALID,0.421652,
2001-08-23, 02:45:00,VALID,916.698,VALID,0,VALID,97.3159,VALID,-0.0849042,VALID,18.9176,VALID,358,VALID,0.553285,
2001-08-23, 02:46:00,VALID,916.705,VALID,0,VALID,97.3642,VALID,-0.0169808,VALID,18.9333,VALID,329,VALID,0.217516,
2001-08-23, 02:47:00,VALID,916.688,VALID,0,VALID,97.2549,VALID,-0.0339617,VALID,18.94,VALID,329,VALID,0,
2001-08-23, 02:48:00,VALID,916.681,VALID,0,VALID,97.1582,VALID,-0.0169808,VALID,18.9395,VALID,329,VALID,0,
2001-08-23, 02:49:00,VALID,916.679,VALID,0,VALID,97.1951,VALID,-0.0509425,VALID,18.9497,VALID,330,VALID,0.185547,
2001-08-23, 02:50:00,VALID,916.648,VALID,0,VALID,97.1201,VALID,-0.0339617,VALID,18.9397,VALID,349,VALID,0.201057,
2001-08-23, 02:51:00,VALID,916.629,VALID,0,VALID,96.9624,VALID,-0.0679233,VALID,18.9044,VALID,359,VALID,0.701014,
2001-08-23, 02:52:00,VALID,916.631,VALID,0,VALID,97.0794,VALID,-0.101885,VALID,18.9107,VALID,11,VALID,0.892228,
2001-08-23, 02:53:00,VALID,916.624,VALID,0,VALID,96.9865,VALID,-0.0509425,VALID,18.9171,VALID,352,VALID,0.653245,
2001-08-23, 02:54:00,VALID,916.612,VALID,0,VALID,96.8785,VALID,-0.0339617,VALID,18.9107,VALID,359,VALID,0.66847,
2001-08-23, 02:55:00,VALID,916.599,VALID,0,VALID,96.8289,VALID,-0.0169808,VALID,18.9104,VALID,2,VALID,0.641071,
2001-08-23, 02:56:00,VALID,916.586,VALID,0,VALID,96.8403,VALID,-0.0849042,VALID,18.9206,VALID,357,VALID,0.532422,
2001-08-23, 02:57:00,VALID,916.586,VALID,0,VALID,96.9586,VALID,-0.0169808,VALID,18.9432,VALID,2,VALID,0.5375,
2001-08-23, 02:58:00,VALID,916.576,VALID,0,VALID,96.9357,VALID,-0.0339617,VALID,18.9531,VALID,7,VALID,0.632031,
2001-08-23, 02:59:00,VALID,916.572,VALID,0,VALID,96.8836,VALID,-0.0509425,VALID,18.943,VALID,20,VALID,0.579603,
2001-08-23, 03:00:00,VALID,916.548,VALID,0,VALID,96.8912,VALID,-0.0169808,VALID,18.9504,VALID,11,VALID,0.856771,
2001-08-23, 03:01:00,VALID,916.526,VALID,0,VALID,96.9471,VALID,-0.0509425,VALID,18.94,VALID,13,VALID,1.06384,
2001-08-23, 03:02:00,VALID,916.512,VALID,0,VALID,96.9509,VALID,-0.0169808,VALID,18.9462,VALID,16,VALID,1.02639,
2001-08-23, 03:03:00,VALID,916.482,VALID,0,VALID,96.9331,VALID,-0.0509425,VALID,18.9531,VALID,20,VALID,0.993243,
2001-08-23, 03:04:00,VALID,916.473,VALID,0,VALID,96.8467,VALID,-0.0509425,VALID,18.9534,VALID,19,VALID,0.884816,
2001-08-23, 03:05:00,VALID,916.474,VALID,0,VALID,96.9014,VALID,-0.0509425,VALID,18.9626,VALID,19,VALID,0.666266,
2001-08-23, 03:06:00,VALID,916.463,VALID,0,VALID,96.7513,VALID,-0.0679233,VALID,18.9593,VALID,11,VALID,0.530134,
2001-08-23, 03:07:00,VALID,916.445,VALID,0,VALID,96.6852,VALID,-0.0339617,VALID,18.9499,VALID,355,VALID,0.655633,
2001-08-23, 03:08:00,VALID,916.424,VALID,0,VALID,96.7971,VALID,-0.0849042,VALID,18.966,VALID,8,VALID,0.653245,
2001-08-23, 03:09:00,VALID,916.405,VALID,0,VALID,96.834,VALID,-0.0509425,VALID,18.9817,VALID,14,VALID,0.79082,
2001-08-23, 03:10:00,VALID,916.391,VALID,0,VALID,96.8022,VALID,-0.0339617,VALID,18.9946,VALID,10,VALID,0.767525,
2001-08-23, 03:11:00,VALID,916.383,VALID,0,VALID,96.5885,VALID,-0.0339617,VALID,19.0083,VALID,16,VALID,0.633868,
2001-08-23, 03:12:00,VALID,916.379,VALID,0,VALID,96.5453,VALID,-0.0509425,VALID,19.0212,VALID,19,VALID,0.683811,
2001-08-23, 03:13:00,VALID,916.36,VALID,0,VALID,96.422,VALID,-0.0679233,VALID,19.0304,VALID,27,VALID,0.669531,
2001-08-23, 03:14:00,VALID,916.353,VALID,0,VALID,96.3088,VALID,-0.0339617,VALID,19.0562,VALID,32,VALID,0.743945,
2001-08-23, 03:15:00,VALID,916.356,VALID,0,VALID,96.1422,VALID,0.0849042,VALID,19.0841,VALID,37,VALID,0.782051,
2001-08-23, 03:16:00,VALID,916.365,VALID,0,VALID,95.907,VALID,0.101885,VALID,19.0868,VALID,27,VALID,0.598357,
2001-08-23, 03:17:00,VALID,916.373,VALID,0,VALID,95.6984,VALID,0.101885,VALID,19.1099,VALID,13,VALID,0.424554,
2001-08-23, 03:18:00,VALID,916.367,VALID,0,VALID,95.4059,VALID,0.101885,VALID,19.1,VALID,13,VALID,0.491787,
2001-08-23, 03:19:00,VALID,916.361,VALID,0,VALID,95.2178,VALID,0.0679233,VALID,19.0769,VALID,13,VALID,0.430304,
2001-08-23, 03:20:00,VALID,916.349,VALID,0,VALID,94.9711,VALID,0.101885,VALID,19.0456,VALID,9,VALID,0.509046,
2001-08-23, 03:21:00,VALID,916.333,VALID,0,VALID,95.2165,VALID,0.0849042,VALID,19.0096,VALID,5,VALID,0.633247,
2001-08-23, 03:22:00,VALID,916.313,VALID,0,VALID,95.3754,VALID,0.0339617,VALID,19.0034,VALID,5,VALID,0.627387,
2001-08-23, 03:23:00,VALID,916.317,VALID,0,VALID,95.3424,VALID,0.0679233,VALID,18.9939,VALID,5,VALID,0.608226,
2001-08-23, 03:24:00,VALID,916.314,VALID,0,VALID,95.3767,VALID,0.0679233,VALID,18.9515,VALID,4,VALID,0.752111,
2001-08-23, 03:25:00,VALID,916.306,VALID,0,VALID,95.4326,VALID,0.0679233,VALID,18.9452,VALID,2,VALID,0.774439,
2001-08-23, 03:26:00,VALID,916.309,VALID,0,VALID,95.5051,VALID,0.0509425,VALID,18.945,VALID,4,VALID,0.492622,
2001-08-23, 03:27:00,VALID,916.313,VALID,0,VALID,95.3869,VALID,0.0169808,VALID,18.9318,VALID,7,VALID,0.651242,
2001-08-23, 03:28:00,VALID,916.293,VALID,0,VALID,95.1974,VALID,0.0509425,VALID,18.9134,VALID,11,VALID,0.948214,
2001-08-23, 03:29:00,VALID,916.281,VALID,0,VALID,95.4835,VALID,0.0509425,VALID,18.8809,VALID,19,VALID,0.94082,
2001-08-23, 03:30:00,VALID,916.289,VALID,0,VALID,95.4428,VALID,-0.0339617,VALID,18.8696,VALID,19,VALID,0.807031,
2001-08-23, 03:31:00,VALID,916.299,VALID,0,VALID,95.3792,VALID,-0.0509425,VALID,18.8269,VALID,14,VALID,0.811328,
2001-08-23, 03:32:00,VALID,916.311,VALID,0,VALID,95.2483,VALID,0,VALID,18.7986,VALID,4,VALID,0.56989,